Location: *
(28.3744°N, 81.5492°W)
Time: 03:27:55
(UTC+00:00)

IRS-1C Rocket - Pass Details

Date: 15 June 2025
Orbit: 799 x 805 km, 98.7° (Epoch: 11 July)

Event Time Altitude Azimuth Distance (km) Brightness Sun altitude
Exits shadow 02:38:06 49° 81° (E) 1,026 4.4 -24.3°
Maximum altitude 02:38:19 49° 74° (ENE) 1,023 4.4 -24.3°
Drops below altitude 10° 02:43:21 10° 0° (N) 2,376 7.1 -25.0°
Sets 02:45:44 0° 355° (N) 3,308 8.1 -25.4°
